DLH649 UAAA-UACC

Flight info

Callsign DLH649
Flight time 1h 21m
Altitude 36000
Route ETEDA1B ETEDA W333 BANOS
Aircraft A346/H-SDE2E3FGHIJ3J4J5M1RWXY/LB1D1

Departure

Time 2026-05-08 11:26
Airport Almaty International Airport (UAAA)

Arrival

Time 2026-05-08 12:47
Airport Nursultan Nazarbayev International Airport (UACC)
Time Latitude Longitude Altitude Speed Heading
2026-05-08 10:48 43.34967 77.01318 2237 ft 0 kts 246°
2026-05-08 11:13 43.34974 77.01339 2237 ft 4 kts 248°
2026-05-08 11:14 43.34984 77.01372 2235 ft 4 kts 242°
2026-05-08 11:14 43.34996 77.01394 2237 ft 3 kts 209°
2026-05-08 11:14 43.35016 77.01405 2237 ft 4 kts 189°
2026-05-08 11:14 43.35037 77.01403 2237 ft 4 kts 158°
2026-05-08 11:15 43.35060 77.01388 2235 ft 3 kts 154°
2026-05-08 11:15 43.35063 77.01386 2237 ft 0 kts 154°
2026-05-08 11:18 43.35060 77.01388 2237 ft 1 kts 154°
2026-05-08 11:18 43.35054 77.01391 2237 ft 1 kts 154°
2026-05-08 11:19 43.35014 77.01417 2232 ft 11 kts 156°
2026-05-08 11:19 43.34917 77.01477 2236 ft 14 kts 156°
2026-05-08 11:19 43.34824 77.01544 2232 ft 16 kts 120°
2026-05-08 11:19 43.34811 77.01709 2235 ft 19 kts 93°
2026-05-08 11:20 43.34802 77.01897 2237 ft 21 kts 94°
2026-05-08 11:20 43.34793 77.02103 2237 ft 22 kts 94°
2026-05-08 11:20 43.34783 77.02325 2237 ft 24 kts 94°
2026-05-08 11:20 43.34775 77.02527 2233 ft 17 kts 88°
2026-05-08 11:21 43.34821 77.02686 2230 ft 20 kts 56°
2026-05-08 11:21 43.34905 77.02857 2227 ft 22 kts 55°
2026-05-08 11:21 43.34993 77.03035 2227 ft 23 kts 56°
2026-05-08 11:21 43.35086 77.03222 2233 ft 24 kts 55°
2026-05-08 11:22 43.35184 77.03415 2238 ft 25 kts 54°
2026-05-08 11:22 43.35287 77.03617 2233 ft 27 kts 55°
2026-05-08 11:22 43.35391 77.03834 2234 ft 28 kts 57°
2026-05-08 11:22 43.35496 77.04054 2232 ft 26 kts 56°
2026-05-08 11:23 43.35601 77.04266 2235 ft 27 kts 56°
2026-05-08 11:23 43.35708 77.04479 2235 ft 27 kts 56°
2026-05-08 11:23 43.35818 77.04699 2235 ft 28 kts 55°
2026-05-08 11:23 43.35925 77.04914 2234 ft 21 kts 56°
2026-05-08 11:24 43.35966 77.05070 2229 ft 14 kts 111°
2026-05-08 11:24 43.35893 77.05156 2230 ft 10 kts 143°
2026-05-08 11:24 43.35838 77.05184 2235 ft 8 kts 197°
2026-05-08 11:24 43.35793 77.05113 2232 ft 17 kts 236°
2026-05-08 11:25 43.35605 77.04731 2236 ft 82 kts 236°
2026-05-08 11:25 43.35158 77.03831 2234 ft 143 kts 236°
2026-05-08 11:25 43.34497 77.02513 2256 ft 188 kts 235°
2026-05-08 11:25 43.33749 77.00978 2723 ft 196 kts 237°
2026-05-08 11:26 43.33019 76.99408 3395 ft 191 kts 238°
2026-05-08 11:26 43.32336 76.97891 4079 ft 183 kts 239°
2026-05-08 11:26 43.31648 76.96361 4360 ft 195 kts 238°
2026-05-08 11:26 43.31046 76.94630 4632 ft 209 kts 259°
2026-05-08 11:27 43.31215 76.92607 4920 ft 224 kts 295°
2026-05-08 11:27 43.32306 76.91026 5198 ft 240 kts 329°
2026-05-08 11:27 43.33826 76.89905 5556 ft 256 kts 332°
2026-05-08 11:27 43.35461 76.88721 5932 ft 273 kts 332°
2026-05-08 11:28 43.37176 76.87466 6437 ft 284 kts 331°
2026-05-08 11:28 43.38923 76.86175 7183 ft 286 kts 331°
2026-05-08 11:28 43.40684 76.84866 7953 ft 288 kts 331°
2026-05-08 11:28 43.42457 76.83546 8688 ft 292 kts 331°
2026-05-08 11:29 43.44251 76.82187 9411 ft 295 kts 327°
2026-05-08 11:29 43.45772 76.80347 10106 ft 297 kts 307°
2026-05-08 11:29 43.46810 76.77859 10730 ft 306 kts 293°
2026-05-08 11:29 43.47639 76.75073 11158 ft 323 kts 291°
2026-05-08 11:30 43.48483 76.72111 11544 ft 341 kts 291°
2026-05-08 11:30 43.49386 76.68968 11963 ft 359 kts 291°
2026-05-08 11:30 43.50331 76.65725 12687 ft 366 kts 291°
2026-05-08 11:30 43.51288 76.62464 13588 ft 368 kts 291°
2026-05-08 11:31 43.52442 76.59285 14405 ft 373 kts 305°
2026-05-08 11:31 43.54308 76.56780 15205 ft 378 kts 326°
2026-05-08 11:31 43.56718 76.55300 16000 ft 383 kts 344°
2026-05-08 11:31 43.59326 76.54475 16790 ft 386 kts 347°
2026-05-08 11:32 43.61970 76.53683 17480 ft 391 kts 347°
2026-05-08 11:32 43.64640 76.52865 18166 ft 396 kts 346°
2026-05-08 11:32 43.67338 76.52016 18912 ft 399 kts 346°
2026-05-08 11:32 43.70058 76.51148 19634 ft 403 kts 346°
2026-05-08 11:33 43.72805 76.50266 20308 ft 407 kts 346°
2026-05-08 11:33 43.75576 76.49375 20963 ft 411 kts 346°
2026-05-08 11:33 43.78376 76.48474 21622 ft 415 kts 346°
2026-05-08 11:33 43.81201 76.47563 22269 ft 419 kts 346°
2026-05-08 11:34 43.84047 76.46628 22918 ft 422 kts 345°
2026-05-08 11:34 43.86899 76.45557 23539 ft 426 kts 343°
2026-05-08 11:34 43.89761 76.44424 24157 ft 430 kts 343°
2026-05-08 11:34 43.92650 76.43274 24762 ft 434 kts 343°
2026-05-08 11:35 43.95565 76.42119 25336 ft 437 kts 343°
2026-05-08 11:35 43.98504 76.40961 25917 ft 441 kts 343°
2026-05-08 11:35 44.01466 76.39796 26482 ft 444 kts 343°
2026-05-08 11:35 44.04449 76.38625 27024 ft 448 kts 343°
2026-05-08 11:36 44.07460 76.37444 27548 ft 451 kts 343°
2026-05-08 11:36 44.10491 76.36254 28071 ft 454 kts 343°
2026-05-08 11:36 44.13540 76.35056 28588 ft 457 kts 343°
2026-05-08 11:36 44.16609 76.33850 29081 ft 460 kts 343°
2026-05-08 11:37 44.19704 76.32633 29553 ft 463 kts 343°
2026-05-08 11:37 44.22816 76.31408 30033 ft 466 kts 343°
2026-05-08 11:37 44.25944 76.30174 30552 ft 467 kts 343°
2026-05-08 11:37 44.29020 76.28961 31189 ft 465 kts 343°
2026-05-08 11:38 44.32171 76.27717 31856 ft 462 kts 343°
2026-05-08 11:38 44.35214 76.26514 32457 ft 461 kts 342°
2026-05-08 11:38 44.38297 76.25294 33032 ft 459 kts 342°
2026-05-08 11:38 44.41367 76.24078 33593 ft 458 kts 342°
2026-05-08 11:39 44.44428 76.22863 34130 ft 457 kts 342°
2026-05-08 11:39 44.47479 76.21651 34650 ft 456 kts 342°
2026-05-08 11:39 44.50525 76.20440 35159 ft 454 kts 342°
2026-05-08 11:39 44.53559 76.19232 35653 ft 453 kts 342°
2026-05-08 11:40 44.56586 76.18026 36110 ft 451 kts 342°
2026-05-08 11:40 44.59605 76.16821 36518 ft 451 kts 342°
2026-05-08 11:40 44.62626 76.15614 36852 ft 452 kts 342°
2026-05-08 11:40 44.65653 76.14404 37227 ft 451 kts 342°
2026-05-08 11:41 44.68660 76.13201 37658 ft 449 kts 342°
2026-05-08 11:41 44.71662 76.11999 37964 ft 449 kts 342°
2026-05-08 11:41 44.74675 76.10790 38016 ft 451 kts 342°
2026-05-08 11:42 44.80709 76.08365 38024 ft 451 kts 342°
2026-05-08 11:42 44.86751 76.05932 38025 ft 451 kts 342°
2026-05-08 11:43 44.92790 76.03496 38025 ft 451 kts 342°
2026-05-08 11:43 44.98827 76.01054 38025 ft 451 kts 342°
2026-05-08 11:44 45.04857 75.98611 38024 ft 452 kts 342°
2026-05-08 11:44 45.10906 75.96155 38025 ft 452 kts 342°
2026-05-08 11:45 45.16958 75.93691 38025 ft 452 kts 342°
2026-05-08 11:45 45.23010 75.91222 38018 ft 453 kts 342°
2026-05-08 11:46 45.29021 75.88764 38017 ft 453 kts 342°
2026-05-08 11:46 45.35072 75.86285 38013 ft 453 kts 342°
2026-05-08 11:47 45.41124 75.83800 38008 ft 453 kts 342°
2026-05-08 11:47 45.47176 75.81309 38007 ft 453 kts 342°
2026-05-08 11:48 45.53223 75.78814 38008 ft 453 kts 342°
2026-05-08 11:48 45.59271 75.76314 38007 ft 452 kts 342°
2026-05-08 11:49 45.65318 75.73809 38007 ft 452 kts 342°
2026-05-08 11:49 45.71334 75.71192 38007 ft 451 kts 339°
2026-05-08 11:50 45.77159 75.67870 38007 ft 450 kts 335°
2026-05-08 11:50 45.82899 75.64329 38007 ft 450 kts 335°
2026-05-08 11:51 45.88658 75.60766 38007 ft 450 kts 335°
2026-05-08 11:51 45.94413 75.57206 38007 ft 451 kts 335°
2026-05-08 11:52 46.00170 75.53638 38007 ft 451 kts 335°
2026-05-08 11:52 46.05930 75.50064 38007 ft 451 kts 335°
2026-05-08 11:53 46.11693 75.46477 38007 ft 451 kts 335°
2026-05-08 11:53 46.16482 75.43491 38007 ft 451 kts 335°
2026-05-08 11:54 46.22241 75.39893 38008 ft 451 kts 335°
2026-05-08 11:54 46.28015 75.36303 38007 ft 452 kts 335°
2026-05-08 11:55 46.33790 75.32714 38007 ft 452 kts 335°
2026-05-08 11:55 46.39571 75.29110 38007 ft 452 kts 335°
2026-05-08 11:56 46.45367 75.25486 38007 ft 452 kts 335°
2026-05-08 11:56 46.51148 75.21864 37999 ft 452 kts 335°
2026-05-08 11:57 46.56928 75.18234 37998 ft 453 kts 335°
2026-05-08 11:57 46.62713 75.14592 37998 ft 453 kts 335°
2026-05-08 11:58 46.68497 75.10941 37997 ft 453 kts 335°
2026-05-08 11:58 46.74284 75.07281 37998 ft 453 kts 335°
2026-05-08 11:59 46.82967 75.01773 37997 ft 454 kts 335°
2026-05-08 11:59 46.88723 74.98166 37997 ft 454 kts 336°
2026-05-08 12:00 46.94629 74.94874 37998 ft 454 kts 338°
2026-05-08 12:00 47.00546 74.91629 37998 ft 455 kts 338°
2026-05-08 12:01 47.06468 74.88367 37998 ft 455 kts 337°
2026-05-08 12:01 47.12391 74.85091 37998 ft 455 kts 337°
2026-05-08 12:02 47.18311 74.81806 37998 ft 455 kts 337°
2026-05-08 12:02 47.24233 74.78512 37998 ft 455 kts 337°
2026-05-08 12:03 47.30157 74.75208 37998 ft 455 kts 337°
2026-05-08 12:03 47.36078 74.71899 37998 ft 455 kts 337°
2026-05-08 12:04 47.42002 74.68580 37997 ft 455 kts 337°
2026-05-08 12:04 47.47924 74.65254 37998 ft 455 kts 337°
2026-05-08 12:05 47.53845 74.61919 37997 ft 455 kts 337°
2026-05-08 12:05 47.59778 74.58595 37998 ft 456 kts 337°
2026-05-08 12:06 47.65709 74.55271 37998 ft 456 kts 337°
2026-05-08 12:06 47.71641 74.51935 37998 ft 456 kts 337°
2026-05-08 12:07 47.77571 74.48593 37989 ft 456 kts 337°
2026-05-08 12:07 47.83504 74.45240 37988 ft 456 kts 337°
2026-05-08 12:08 47.89433 74.41881 37989 ft 456 kts 337°
2026-05-08 12:08 47.95363 74.38512 37989 ft 456 kts 337°
2026-05-08 12:09 48.01283 74.35142 37988 ft 456 kts 337°
2026-05-08 12:09 48.07173 74.31780 37987 ft 456 kts 337°
2026-05-08 12:10 48.13102 74.28388 37979 ft 456 kts 337°
2026-05-08 12:10 48.19039 74.25021 37979 ft 456 kts 337°
2026-05-08 12:11 48.24977 74.21662 37979 ft 456 kts 337°
2026-05-08 12:11 48.30915 74.18291 37980 ft 456 kts 337°
2026-05-08 12:12 48.36850 74.14912 37967 ft 456 kts 337°
2026-05-08 12:12 48.42784 74.11526 37977 ft 456 kts 337°
2026-05-08 12:13 48.48717 74.08130 37964 ft 456 kts 337°
2026-05-08 12:13 48.54646 74.04731 37977 ft 456 kts 336°
2026-05-08 12:14 48.60572 74.01320 37960 ft 456 kts 336°
2026-05-08 12:14 48.66499 73.97901 37962 ft 457 kts 336°
2026-05-08 12:15 48.72440 73.94466 37965 ft 457 kts 336°
2026-05-08 12:15 48.78382 73.91021 37897 ft 458 kts 336°
2026-05-08 12:16 48.81355 73.89296 37634 ft 456 kts 336°
2026-05-08 12:16 48.84267 73.87603 37387 ft 453 kts 336°
2026-05-08 12:16 48.87201 73.85896 37134 ft 451 kts 336°
2026-05-08 12:16 48.90121 73.84194 36878 ft 448 kts 336°
2026-05-08 12:17 48.93028 73.82497 36630 ft 447 kts 336°
2026-05-08 12:17 48.95928 73.80802 36379 ft 446 kts 336°
2026-05-08 12:17 48.98829 73.79103 36120 ft 448 kts 336°
2026-05-08 12:17 49.01741 73.77390 35866 ft 452 kts 336°
2026-05-08 12:18 49.04691 73.75651 35627 ft 455 kts 336°
2026-05-08 12:18 49.07650 73.73906 35375 ft 457 kts 336°
2026-05-08 12:18 49.10617 73.72153 35121 ft 457 kts 336°
2026-05-08 12:18 49.13585 73.70398 34874 ft 458 kts 335°
2026-05-08 12:19 49.16562 73.68636 34623 ft 459 kts 335°
2026-05-08 12:19 49.19537 73.66872 34366 ft 459 kts 335°
2026-05-08 12:19 49.22515 73.65104 34118 ft 459 kts 335°
2026-05-08 12:19 49.25497 73.63332 33868 ft 460 kts 335°
2026-05-08 12:20 49.28482 73.61554 33614 ft 461 kts 335°
2026-05-08 12:20 49.31472 73.59771 33363 ft 461 kts 335°
2026-05-08 12:20 49.34463 73.57985 33112 ft 462 kts 335°
2026-05-08 12:20 49.37464 73.56191 32865 ft 463 kts 335°
2026-05-08 12:21 49.40462 73.54398 32603 ft 463 kts 335°
2026-05-08 12:21 49.43470 73.52595 32351 ft 464 kts 335°
2026-05-08 12:21 49.46480 73.50789 32107 ft 465 kts 335°
2026-05-08 12:21 49.49492 73.48979 31867 ft 465 kts 335°
2026-05-08 12:22 49.52512 73.47163 31607 ft 466 kts 335°
2026-05-08 12:22 49.55532 73.45344 31353 ft 466 kts 335°
2026-05-08 12:22 49.58557 73.43519 31103 ft 467 kts 335°
2026-05-08 12:22 49.61579 73.41668 30848 ft 467 kts 334°
2026-05-08 12:23 49.64522 73.39568 30597 ft 466 kts 330°
2026-05-08 12:23 49.67362 73.37159 30346 ft 465 kts 326°
2026-05-08 12:23 49.70077 73.34456 30089 ft 464 kts 322°
2026-05-08 12:23 49.72658 73.31474 29750 ft 463 kts 318°
2026-05-08 12:24 49.75089 73.28238 29314 ft 458 kts 315°
2026-05-08 12:24 49.77425 73.24909 29003 ft 456 kts 314°
2026-05-08 12:24 49.79733 73.21570 28609 ft 453 kts 314°
2026-05-08 12:24 49.82025 73.18243 28203 ft 449 kts 314°
2026-05-08 12:25 49.84298 73.14944 27782 ft 446 kts 314°
2026-05-08 12:25 49.86559 73.11664 27365 ft 443 kts 314°
2026-05-08 12:25 49.88800 73.08411 26949 ft 440 kts 314°
2026-05-08 12:25 49.91028 73.05176 26540 ft 436 kts 314°
2026-05-08 12:26 49.93236 73.01966 26121 ft 433 kts 314°
2026-05-08 12:26 49.95417 72.98793 25713 ft 430 kts 314°
2026-05-08 12:26 49.97596 72.95619 25301 ft 427 kts 314°
2026-05-08 12:26 49.99727 72.92511 24892 ft 424 kts 314°
2026-05-08 12:27 50.01863 72.89392 24485 ft 421 kts 314°
2026-05-08 12:27 50.04015 72.86246 24051 ft 418 kts 314°
2026-05-08 12:27 50.06126 72.83155 23625 ft 414 kts 314°
2026-05-08 12:27 50.08218 72.80088 23212 ft 411 kts 314°
2026-05-08 12:28 50.10291 72.77046 22805 ft 407 kts 314°
2026-05-08 12:28 50.12346 72.74025 22416 ft 404 kts 314°
2026-05-08 12:28 50.14383 72.71028 22003 ft 401 kts 314°
2026-05-08 12:28 50.16412 72.68060 21564 ft 399 kts 315°
2026-05-08 12:29 50.18563 72.65341 21153 ft 397 kts 321°
2026-05-08 12:29 50.20842 72.63004 20737 ft 397 kts 327°
2026-05-08 12:29 50.23265 72.60966 20334 ft 395 kts 330°
2026-05-08 12:29 50.25709 72.59034 19924 ft 392 kts 330°
2026-05-08 12:30 50.28139 72.57132 19535 ft 389 kts 331°
2026-05-08 12:30 50.30547 72.55245 19125 ft 386 kts 330°
2026-05-08 12:30 50.32935 72.53365 18732 ft 383 kts 330°
2026-05-08 12:30 50.35307 72.51491 18336 ft 380 kts 330°
2026-05-08 12:31 50.37653 72.49633 17947 ft 377 kts 330°
2026-05-08 12:31 50.39983 72.47783 17552 ft 374 kts 330°
2026-05-08 12:31 50.42293 72.45948 17167 ft 371 kts 330°
2026-05-08 12:31 50.44583 72.44127 16778 ft 367 kts 330°
2026-05-08 12:32 50.46855 72.42316 16399 ft 365 kts 330°
2026-05-08 12:32 50.49115 72.40513 16012 ft 363 kts 330°
2026-05-08 12:32 50.51366 72.38715 15632 ft 362 kts 330°
2026-05-08 12:32 50.53603 72.36927 15243 ft 360 kts 330°
2026-05-08 12:33 50.55831 72.35144 14851 ft 358 kts 330°
2026-05-08 12:33 50.58047 72.33369 14477 ft 356 kts 331°
2026-05-08 12:33 50.60252 72.31600 14085 ft 355 kts 331°
2026-05-08 12:33 50.62445 72.29839 13706 ft 353 kts 331°
2026-05-08 12:34 50.64629 72.28084 13330 ft 351 kts 331°
2026-05-08 12:34 50.66798 72.26339 12947 ft 349 kts 331°
2026-05-08 12:34 50.68955 72.24601 12610 ft 345 kts 331°
2026-05-08 12:34 50.71049 72.22916 12548 ft 331 kts 331°
2026-05-08 12:35 50.73069 72.21289 12467 ft 323 kts 330°
2026-05-08 12:35 50.75062 72.19674 12182 ft 322 kts 330°
2026-05-08 12:35 50.77045 72.18047 11810 ft 320 kts 330°
2026-05-08 12:35 50.79014 72.16427 11452 ft 318 kts 330°
2026-05-08 12:36 50.80970 72.14813 11106 ft 316 kts 330°
2026-05-08 12:36 50.82919 72.13207 10752 ft 315 kts 330°
2026-05-08 12:36 50.84853 72.11610 10401 ft 313 kts 330°
2026-05-08 12:36 50.86775 72.10023 10135 ft 307 kts 330°
2026-05-08 12:37 50.88621 72.08499 10080 ft 291 kts 330°
2026-05-08 12:37 50.90388 72.07041 10025 ft 283 kts 330°
2026-05-08 12:37 50.92119 72.05608 9927 ft 279 kts 330°
2026-05-08 12:37 50.93817 72.04200 9591 ft 279 kts 330°
2026-05-08 12:38 50.95538 72.02770 9285 ft 279 kts 330°
2026-05-08 12:38 50.97253 72.01345 8972 ft 278 kts 331°
2026-05-08 12:38 50.98963 71.99925 8666 ft 277 kts 331°
2026-05-08 12:38 51.00667 71.98509 8366 ft 276 kts 331°
2026-05-08 12:39 51.02368 71.97096 8069 ft 275 kts 331°
2026-05-08 12:39 51.04061 71.95686 7767 ft 274 kts 331°
2026-05-08 12:39 51.05747 71.94281 7475 ft 273 kts 331°
2026-05-08 12:39 51.07427 71.92879 7190 ft 272 kts 331°
2026-05-08 12:40 51.09104 71.91479 6900 ft 271 kts 331°
2026-05-08 12:40 51.10773 71.90085 6610 ft 270 kts 331°
2026-05-08 12:40 51.12433 71.88696 6323 ft 269 kts 331°
2026-05-08 12:40 51.14070 71.87278 6055 ft 266 kts 327°
2026-05-08 12:41 51.15546 71.85557 5949 ft 262 kts 318°
2026-05-08 12:41 51.16860 71.83571 5612 ft 258 kts 314°
2026-05-08 12:41 51.18106 71.81549 5280 ft 252 kts 313°
2026-05-08 12:41 51.19194 71.79406 4914 ft 246 kts 294°
2026-05-08 12:42 51.19551 71.77684 4685 ft 240 kts 276°
2026-05-08 12:42 51.19455 71.75082 4386 ft 232 kts 252°
2026-05-08 12:42 51.18763 71.72822 4229 ft 223 kts 233°
2026-05-08 12:42 51.17794 71.70987 4160 ft 208 kts 227°
2026-05-08 12:43 51.16830 71.69383 4140 ft 193 kts 225°
2026-05-08 12:43 51.15887 71.67885 4145 ft 191 kts 224°
2026-05-08 12:43 51.14952 71.66424 4106 ft 190 kts 224°
2026-05-08 12:43 51.14004 71.64951 4036 ft 190 kts 224°
2026-05-08 12:44 51.13055 71.63476 3814 ft 190 kts 224°
2026-05-08 12:44 51.12100 71.61991 3556 ft 188 kts 224°
2026-05-08 12:44 51.11179 71.60556 3300 ft 188 kts 224°
2026-05-08 12:44 51.10244 71.59098 3056 ft 188 kts 224°
2026-05-08 12:45 51.09328 71.57667 2799 ft 179 kts 224°
2026-05-08 12:45 51.08465 71.56321 2554 ft 167 kts 224°
2026-05-08 12:45 51.07668 71.55076 2334 ft 156 kts 224°
2026-05-08 12:45 51.06883 71.53850 2149 ft 159 kts 224°
2026-05-08 12:46 51.06092 71.52615 1954 ft 159 kts 224°
2026-05-08 12:46 51.05303 71.51382 1734 ft 159 kts 224°
2026-05-08 12:46 51.04515 71.50151 1516 ft 158 kts 224°
2026-05-08 12:46 51.03730 71.48925 1308 ft 158 kts 224°
2026-05-08 12:47 51.02967 71.47727 1180 ft 132 kts 224°
2026-05-08 12:47 51.02561 71.47099 1172 ft 27 kts 225°
2026-05-08 12:47 51.02514 71.46948 1173 ft 13 kts 311°
2026-05-08 12:47 51.02588 71.46816 1168 ft 18 kts 313°
2026-05-08 12:48 51.02653 71.46709 1169 ft 14 kts 314°
2026-05-08 12:48 51.02702 71.46591 1171 ft 13 kts 269°
2026-05-08 12:48 51.02645 71.46472 1168 ft 15 kts 229°
2026-05-08 12:48 51.02614 71.46299 1168 ft 18 kts 244°
2026-05-08 12:49 51.02549 71.46188 1170 ft 10 kts 224°
2026-05-08 12:49 51.02534 71.46116 1170 ft 8 kts 290°
2026-05-08 12:49 51.02559 71.46087 1170 ft 1 kts 349°
2026-05-08 12:49 51.02578 71.46085 1170 ft 4 kts 358°
2026-05-08 12:50 51.02600 71.46084 1172 ft 0 kts 358°
2026-05-08 12:50 51.02603 71.46084 1172 ft 0 kts 358°
2026-05-08 12:50 51.02605 71.46084 1172 ft 0 kts 358°